TimeEST,TemperatureF,Dew PointF,Humidity,Sea Level PressureIn,VisibilityMPH,Wind Direction,Wind SpeedMPH,Gust SpeedMPH,PrecipitationIn,Events,Conditions,WindDirDegrees,DateUTC
12:54 AM,57.0,50.0,77,29.93,-9999.0,Calm,Calm,-,N/A,,Unknown,0,2012-12-05 05:54:00
1:54 AM,55.9,50.0,80,29.91,-9999.0,SSW,3.5,-,N/A,,Unknown,210,2012-12-05 06:54:00
2:54 AM,55.9,51.1,84,29.95,-9999.0,Variable,3.5,-,N/A,,Unknown,0,2012-12-05 07:54:00
3:54 AM,51.1,46.9,86,29.97,-9999.0,North,3.5,-,N/A,,Unknown,360,2012-12-05 08:54:00
4:54 AM,50.0,46.9,89,29.97,-9999.0,Calm,Calm,-,0.01,,Unknown,0,2012-12-05 09:54:00
5:54 AM,50.0,41.0,71,30.00,-9999.0,NNW,5.8,-,N/A,,Unknown,340,2012-12-05 10:54:00
6:54 AM,48.9,42.1,77,30.03,-9999.0,Calm,Calm,-,N/A,,Unknown,0,2012-12-05 11:54:00
7:54 AM,48.9,39.9,71,30.05,-9999.0,Calm,Calm,-,N/A,,Unknown,0,2012-12-05 12:54:00
9:54 AM,48.9,33.1,54,30.07,-9999.0,NNW,10.4,20.7,N/A,,Unknown,340,2012-12-05 14:54:00
10:54 AM,48.0,30.9,52,30.06,-9999.0,NW,8.1,19.6,N/A,,Unknown,310,2012-12-05 15:54:00
11:54 AM,52.0,32.0,47,30.05,-9999.0,North,10.4,-,N/A,,Unknown,360,2012-12-05 16:54:00
12:54 PM,52.0,30.0,43,30.05,-9999.0,NNW,11.5,19.6,N/A,,Unknown,340,2012-12-05 17:54:00
1:54 PM,50.0,30.0,46,30.05,-9999.0,North,11.5,16.1,N/A,,Unknown,10,2012-12-05 18:54:00
2:54 PM,48.0,30.0,50,30.06,-9999.0,NNW,9.2,19.6,N/A,,Unknown,340,2012-12-05 19:54:00
3:54 PM,44.1,30.0,58,30.10,-9999.0,Variable,6.9,18.4,N/A,,Unknown,0,2012-12-05 20:54:00
4:54 PM,41.0,26.1,55,30.15,-9999.0,North,9.2,20.7,N/A,,Unknown,350,2012-12-05 21:54:00
5:54 PM,39.0,21.9,50,30.19,-9999.0,Variable,5.8,-,N/A,,Unknown,0,2012-12-05 22:54:00
6:54 PM,37.0,19.0,48,30.21,-9999.0,Variable,6.9,19.6,N/A,,Unknown,0,2012-12-05 23:54:00
7:54 PM,37.0,21.0,52,30.22,-9999.0,Variable,5.8,-,N/A,,Unknown,0,2012-12-06 00:54:00
8:54 PM,34.0,19.9,56,30.25,-9999.0,North,9.2,16.1,N/A,,Unknown,350,2012-12-06 01:54:00
9:54 PM,32.0,16.0,52,30.26,-9999.0,North,10.4,20.7,N/A,,Unknown,350,2012-12-06 02:54:00
10:54 PM,33.1,18.0,54,30.27,-9999.0,North,5.8,-,N/A,,Unknown,360,2012-12-06 03:54:00
11:54 PM,32.0,19.0,59,30.26,-9999.0,North,6.9,-,N/A,,Unknown,350,2012-12-06 04:54:00